This demonstration page uses our WeatherBlox Daily Observations layout. Learn more.

Left ArrowRight Arrow

Hourly Observations for June 14, 2019

Temp ( °F °C ) Dew Point ( °F °C ) Humidity (%) Winds ( mph kmh ) Pressure ( in mb ) Visibility ( mi km ) Precip ( " mm )
12:56 am 00:56 Mostly Cloudy with Light Rain 65 18.3 52 11.1 63 63 S 15 24 29.86 1011 10 16 0.00 0.03
1:07 am 01:07 Mostly Cloudy with Nearby Thunderstorms 66 19 52 11 60 60 S 14 22 29.86 1011 10 16 0.00 0.03
1:30 am 01:30 Cloudy with Thunderstorms 63 17 55 13 77 77 WSW 8 13 29.94 1014 10 16 0.04 1.02
1:56 am 01:56 Cloudy with Nearby Thunderstorms 60 15.6 56 13.3 86 86 SSW 10 17 29.91 1013 9 14 0.17 4.32
2:13 am 02:13 Cloudy with Rain 59 15 57 14 94 94 S 13 20 29.90 1012 10 16 0.00 0.00
2:56 am 02:56 Cloudy with Light Rain 59 15 56 13.3 90 90 SSE 18 30 29.80 1009 10 16 0.14 3.56
3:56 am 03:56 Clear 59 15 56 13.3 90 90 S 20 31 29.75 1008 10 16 0.00 0.03
4:56 am 04:56 Clear 59 15 55 12.8 87 87 S 20 31 29.76 1008 10 16 0.00 0.00
5:56 am 05:56 Clear 59 15 55 12.8 87 87 S 14 22 29.75 1008 10 16 0.00 0.00
6:56 am 06:56 Sunny 59 15 56 13.3 90 90 S 16 26 29.76 1008 10 16 0.00 0.00
7:56 am 07:56 Sunny 61 16.1 56 13.3 84 84 S 15 24 29.75 1008 10 16 0.00 0.00
8:56 am 08:56 Sunny 64 17.8 57 13.9 78 78 S 17 28 29.74 1007 10 16 0.00 0.00
9:56 am 09:56 Sunny 67 19.4 59 15 76 76 SSW 17 28 29.73 1007 10 16 0.00 0.00
10:56 am 10:56 Sunny 71 21.7 62 16.7 73 73 SSW 17 28 29.72 1006 10 16 0.00 0.00
11:56 am 11:56 Sunny 73 22.8 64 17.8 74 74 SSW 12 19 29.71 1006 10 16 0.00 0.00
12:56 pm 12:56 Sunny 77 25 65 18.3 66 66 SSW 14 22 29.68 1005 10 16 0.00 0.00
1:56 pm 13:56 Sunny 81 27.2 64 17.8 57 57 WSW 10 17 29.66 1005 10 16 0.00 0.00
2:56 pm 14:56 Sunny 83 28.3 64 17.8 53 53 WSW 14 22 29.65 1004 10 16 0.00 0.00
3:56 pm 15:56 Sunny 82 27.8 64 17.8 55 55 WNW 9 15 29.64 1004 10 16 0.00 0.00
4:56 pm 16:56 Sunny 83 28.3 64 17.8 53 53 WNW 7 11 29.65 1004 10 16 0.00 0.00
5:56 pm 17:56 Sunny 83 28.3 65 18.3 55 55 WNW 6 9 29.63 1004 10 16 0.00 0.00
6:56 pm 18:56 Sunny 82 27.8 64 17.8 55 55 NW 5 7 29.63 1004 10 16 0.00 0.00
7:56 pm 19:56 Sunny 81 27.2 63 17.2 54 54 N 7 11 29.62 1003 10 16 0.00 0.00
8:56 pm 20:56 Sunny 77 25 66 18.9 69 69 Calm 29.63 1004 10 16 0.00 0.00
9:56 pm 21:56 Clear 75 23.9 66 18.9 74 74 WNW 5 7 29.65 1004 10 16 0.00 0.00
10:56 pm 22:56 Clear 71 21.7 65 18.3 81 81 N 3 6 29.64 1004 10 16 0.00 0.00
11:56 pm 23:56 Clear 70 21.1 65 18.3 84 84 Calm 29.62 1003 10 16 0.00 0.00

Powered by AerisWeather